[[{"header":{"parameterUnit":"m.s-1","parameterCategory":1,"la1":30.2991,"la2":30.254,"lo1":-89.0895,"lo2":-89.0444,"dy":0.0017,"dx":0.0017,"nx":28,"ny":28,"refTime":"2025-06-15T21:00:00:Z","depth":0,"parameterNumber":2,"parameterNumberName":"U-component_of_WINDS"},"data":[0,0,0,0,0,0,0,0,0,0,0,0,0,0,0,0,0,0,0,0,0,0,0,0,0,0,0,0,0,0,0,0,0,0,0,0,0,0,0,0,0,0,0,0,0,0,0,0,0,0,0,0,0,0,0,0,0,0,2.343,2.3431,0,2.3545,2.3546,2.3547,2.3622,2.3623,2.3623,2.3624,2.3731,2.3734,2.3736,0,0,0,0,0,0,0,0,0,0,0,0,0,2.3268,2.3271,2.343,2.3431,2.3433,2.3544,2.3546,2.3547,2.3622,2.3623,2.3623,2.3624,2.373,2.3733,2.3736,0,0,0,0,0,0,0,0,0,0,0,0,0,2.3356,2.3271,2.343,2.3484,2.349,2.3544,2.3546,2.3548,2.3622,2.3623,2.3624,2.3624,2.373,2.3733,2.3737,2.3743,0,0,2.3747,2.3749,0,0,0,0,0,0,0,0,2.3351,2.3361,2.3474,2.348,2.3487,2.357,2.3528,2.3613,2.3622,2.3572,2.3624,2.3625,2.3676,2.3684,2.3704,2.3748,2.3752,2.3748,2.375,2.3751,2.3752,0,0,0,0,0,0,0,2.3344,2.3357,2.3475,2.3476,2.3484,2.35,2.3513,2.3545,2.3618,2.3576,2.3582,2.3595,2.368,2.37,2.3707,2.3754,2.3748,2.3751,2.3753,2.3754,2.381,2.3809,0,0,0,0,0,0,2.3331,2.3351,2.3471,2.3478,2.342,2.3502,2.3517,2.3542,2.3618,2.363,2.3594,2.3598,2.3694,2.3703,2.3711,2.3724,2.3751,2.3755,2.3757,2.3811,2.381,2.3809,0,0,0,0,0,0,2.3327,2.3341,2.3467,2.3417,2.3434,2.3504,2.3532,2.3544,2.3565,2.3632,2.3644,2.3602,2.3695,2.3706,2.3735,2.3728,2.3756,2.376,2.3811,2.381,2.3809,2.3749,0,0,0,0,0,0,2.3322,2.3339,2.3344,2.3416,2.3436,2.3491,2.3532,2.3546,2.3572,2.3578,2.3642,2.3653,2.3696,2.373,2.3739,2.3734,2.3762,2.3812,2.3811,2.381,2.3752,2.3746,2.3741,0,0,0,0,0,2.3316,2.332,2.3344,2.3358,2.3444,2.3491,2.3502,2.3554,2.3571,2.3575,2.3619,2.3651,2.3728,2.3732,2.3743,2.3739,2.3813,2.3811,2.381,2.3754,2.3747,2.3741,0,0,0,0,0,0,2.324,2.333,2.3358,2.3386,2.3431,2.3503,2.351,2.3544,2.3583,2.3586,2.3646,2.366,2.3683,2.3714,2.3717,2.375,2.3774,2.3775,2.3728,2.3722,2.3717,2.3708,2.3765,0,0,0,0,0,2.3228,2.3261,2.3337,2.3353,2.3375,2.3439,2.3461,2.3498,2.3545,2.3563,2.3609,2.3651,2.3685,2.3705,2.374,2.3757,2.3772,2.376,2.3755,2.375,2.3749,2.3761,2.3756,2.3804,2.3804,2.3804,0,0,2.32,2.3253,2.327,2.334,2.3379,2.3409,2.3454,2.3484,2.3507,2.3567,2.3598,2.3633,2.3684,2.3708,2.372,2.3734,2.3739,2.3748,2.3744,2.3746,2.3759,2.3754,2.375,2.3803,2.3803,2.3804,0,0,2.3165,2.321,2.323,2.3269,2.333,2.3372,2.3377,2.3446,2.3473,2.3506,2.3552,2.3579,2.3636,2.3671,2.3696,2.3678,2.3709,2.3687,2.3658,2.3669,2.3665,2.3662,2.3654,2.3651,2.3687,2.3687,2.3687,0,2.3122,2.3173,2.3234,2.3263,2.3292,2.3353,2.3372,2.3406,2.3472,2.349,2.3506,2.3581,2.3619,2.3652,2.3648,2.3667,2.3672,2.3679,2.3661,2.3659,2.3657,2.365,2.3647,2.3684,2.3684,2.3684,2.3684,0,2.3117,2.3152,2.316,2.3228,2.3258,2.3281,2.3343,2.3366,2.3401,2.3441,2.3474,2.3524,2.357,2.3581,2.3613,2.3618,2.3625,2.3651,2.3676,2.3648,2.3643,2.3641,2.3679,2.368,2.3681,2.3682,0,0,2.3034,2.3139,2.3141,2.3173,2.3245,2.3272,2.3298,2.3347,2.3365,2.341,2.3432,2.3481,2.3505,2.3534,2.3571,2.358,2.3563,2.3605,2.3607,2.3594,2.3571,2.355,2.3546,2.3585,2.3585,2.3585,2.3566,0,2.3009,2.3063,2.312,2.3152,2.3184,2.3244,2.3267,2.3312,2.3352,2.3383,2.3425,2.3458,2.3489,2.3507,2.3519,2.3562,2.3558,2.3565,2.3603,2.3604,2.3587,2.3544,2.3522,2.3501,2.3564,2.3564,2.3564,0,2.2986,2.3033,2.307,2.3142,2.3158,2.3177,2.3228,2.3258,2.331,2.3338,2.3372,2.3413,2.3441,2.3466,2.3505,2.3508,2.3527,2.3551,2.3552,2.3555,2.3581,2.3545,2.3496,2.3492,2.3562,2.3562,2.3562,0,2.2921,2.2993,2.3025,2.305,2.3135,2.3148,2.3183,2.3237,2.3264,2.3307,2.3324,2.3369,2.3393,2.3425,2.3476,2.349,2.351,2.3538,2.3531,2.353,2.353,2.3529,2.3483,2.3546,2.3546,2.3546,2.3546,0,2.2886,2.2906,2.2997,2.3016,2.304,2.3105,2.3125,2.3165,2.3214,2.324,2.3293,2.3316,2.3384,2.3414,2.3454,2.348,2.349,2.3512,2.3522,2.3506,2.3503,2.3517,2.3519,2.3545,2.3545,2.3546,2.3546,0,2.2815,2.2878,2.2916,2.2995,2.3016,2.3029,2.3096,2.3115,2.316,2.3192,2.3203,2.3271,2.331,2.3365,2.3419,2.3447,2.3466,2.3483,2.3448,2.3454,2.3444,2.3443,2.3403,2.3401,2.3467,2.3466,2.3465,0,2.2788,2.2805,2.2888,2.2912,2.2947,2.2983,2.3012,2.3077,2.3104,2.3167,2.3179,2.3223,2.3261,2.332,2.3371,2.3413,2.3431,2.3414,2.3437,2.3421,2.3429,2.3427,2.3428,2.3407,2.3407,2.3406,2.3405,0,2.2732,2.2763,2.2805,2.2858,2.2892,2.2935,2.2981,2.2996,2.307,2.3097,2.314,2.317,2.3229,2.327,2.332,2.3354,2.339,2.3398,2.3399,2.3381,2.336,2.337,2.3432,2.3398,2.3399,2.3399,2.34,2.34,2.2681,2.27,2.2762,2.2807,2.2849,2.2892,2.2915,2.2964,2.3002,2.3057,2.3092,2.3133,2.3186,2.3258,2.329,2.332,2.3335,2.3336,2.3336,2.3334,2.3329,2.3358,2.333,2.333,2.333,2.333,2.3331,0,2.2627,2.2671,2.2712,2.2777,2.2812,2.285,2.2903,2.2928,2.2965,2.3013,2.3052,2.31,2.3142,2.32,2.3245,2.3259,2.3277,2.3268,2.3266,2.3273,2.3313,2.3308,2.3253,2.3253,2.3253,2.3253,2.3253,2.3253,2.2603,2.2637,2.2675,2.2731,2.2774,2.2818,2.2845,2.2883,2.2923,2.2977,2.3013,2.3052,2.3104,2.3154,2.3194,2.3209,2.3223,2.3208,2.3228,2.3264,2.3271,2.3277,2.3272,2.3211,2.3211,2.3187,2.3186,2.3186]},{"header":{"parameterUnit":"m.s-1","parameterCategory":1,"la1":30.2991,"la2":30.254,"lo1":-89.0895,"lo2":-89.0444,"dy":0.0017,"dx":0.0017,"nx":28,"ny":28,"refTime":"2025-06-15T21:00:00:Z","depth":0,"parameterNumber":3,"parameterNumberName":"V-component_of_WINDS"},"data":[0,0,0,0,0,0,0,0,0,0,0,0,0,0,0,0,0,0,0,0,0,0,0,0,0,0,0,0,0,0,0,0,0,0,0,0,0,0,0,0,0,0,0,0,0,0,0,0,0,0,0,0,0,0,0,0,0,0,2.6837,2.6841,0,2.7205,2.721,2.7214,2.7325,2.7323,2.7322,2.732,2.7692,2.7703,2.7714,0,0,0,0,0,0,0,0,0,0,0,0,0,2.6221,2.6232,2.6836,2.6841,2.6846,2.7205,2.721,2.7215,2.7326,2.7323,2.7321,2.7319,2.7688,2.7702,2.7715,0,0,0,0,0,0,0,0,0,0,0,0,0,2.6529,2.6236,2.6836,2.6944,2.6958,2.7204,2.721,2.7216,2.7326,2.7323,2.732,2.7318,2.7683,2.77,2.7717,2.788,0,0,2.7771,2.7778,0,0,0,0,0,0,0,0,2.6511,2.6551,2.6924,2.6937,2.6953,2.7217,2.7129,2.7439,2.7327,2.7186,2.732,2.7317,2.7535,2.7565,2.764,2.7897,2.7913,2.7772,2.7783,2.779,2.7795,0,0,0,0,0,0,0,2.649,2.6536,2.6982,2.6929,2.6947,2.6972,2.7013,2.7188,2.7371,2.7198,2.7207,2.7249,2.7543,2.7623,2.7649,2.7919,2.7772,2.7787,2.7798,2.7805,2.8327,2.833,0,0,0,0,0,0,2.6451,2.6518,2.6971,2.6993,2.6721,2.6986,2.7031,2.7135,2.737,2.7403,2.7251,2.7253,2.7594,2.7629,2.7663,2.787,2.779,2.7806,2.7816,2.8324,2.8328,2.8331,0,0,0,0,0,0,2.6437,2.649,2.6956,2.6758,2.6819,2.6999,2.7114,2.7143,2.7224,2.741,2.7443,2.73,2.7594,2.7638,2.7825,2.7884,2.7814,2.783,2.832,2.8325,2.833,2.8283,0,0,0,0,0,0,2.6419,2.6485,2.6551,2.6759,2.683,2.7114,2.7118,2.7153,2.7254,2.726,2.7465,2.7496,2.7595,2.7799,2.7843,2.7907,2.7844,2.8315,2.8322,2.8328,2.8281,2.8286,2.8291,0,0,0,0,0,2.6397,2.6522,2.6553,2.6607,2.6916,2.7118,2.7158,2.7271,2.7258,2.7325,2.7444,2.7489,2.7869,2.7817,2.7867,2.7937,2.8312,2.832,2.8327,2.8278,2.8285,2.8291,0,0,0,0,0,0,2.6314,2.6551,2.6589,2.6785,2.6931,2.7136,2.7224,2.7275,2.7425,2.7424,2.7556,2.7601,2.7779,2.7876,2.7814,2.8106,2.8092,2.811,2.8037,2.8046,2.8051,2.8025,2.7858,0,0,0,0,0,2.6319,2.6465,2.6663,2.6817,2.6888,2.7043,2.7135,2.7209,2.7364,2.7426,2.7559,2.7706,2.7859,2.7957,2.8108,2.8293,2.8339,2.8366,2.8371,2.8375,2.839,2.8495,2.8509,2.8357,2.8357,2.8357,0,0,2.633,2.6477,2.6562,2.6804,2.6926,2.7073,2.7094,2.7248,2.7358,2.7449,2.7636,2.7737,2.7909,2.8096,2.8185,2.8183,2.8441,2.8385,2.8386,2.84,2.8504,2.8519,2.8531,2.8362,2.8361,2.836,0,0,2.6427,2.6552,2.6695,2.6816,2.7,2.7102,2.7135,2.7333,2.7405,2.7594,2.7665,2.7795,2.8055,2.8175,2.827,2.8408,2.8455,2.8453,2.8482,2.8583,2.8595,2.8606,2.8656,2.8673,2.8466,2.8466,2.8466,0,2.6417,2.6644,2.6761,2.6913,2.7017,2.7106,2.725,2.7361,2.7583,2.7652,2.7646,2.7974,2.8096,2.8313,2.8346,2.842,2.8461,2.8432,2.8584,2.8596,2.8609,2.8658,2.8676,2.8465,2.8465,2.8465,2.8465,0,2.6623,2.6779,2.6871,2.7086,2.72,2.7346,2.7484,2.7584,2.7647,2.7748,2.7937,2.8086,2.8269,2.8325,2.8387,2.855,2.8543,2.8558,2.8547,2.862,2.8669,2.8688,2.8463,2.8463,2.8464,2.8464,0,0,2.6683,2.6959,2.6991,2.7089,2.7297,2.7418,2.7566,2.7747,2.7831,2.7979,2.8107,2.8323,2.8339,2.8446,2.8522,2.861,2.871,2.8616,2.8621,2.8629,2.8899,2.8888,2.8908,2.8741,2.8745,2.8748,2.8885,0,2.6807,2.7081,2.719,2.7411,2.7555,2.764,2.7769,2.7909,2.8006,2.814,2.8246,2.8399,2.8407,2.8472,2.8563,2.8679,2.8767,2.867,2.8861,2.8866,2.8819,2.8933,2.8923,2.9045,2.8904,2.8908,2.891,0,2.6991,2.7144,2.738,2.7569,2.7633,2.7748,2.7921,2.8049,2.8207,2.8271,2.839,2.846,2.8617,2.8592,2.8809,2.8741,2.8824,2.8892,2.89,2.8925,2.8895,2.8963,2.9087,2.9105,2.8941,2.8938,2.8936,0,2.7013,2.7276,2.7452,2.7533,2.7757,2.7836,2.7932,2.8089,2.8189,2.8338,2.8405,2.8569,2.8659,2.8783,2.8895,2.8867,2.9102,2.9086,2.9159,2.9156,2.9208,2.9204,2.9349,2.9256,2.9256,2.9256,2.9255,0,2.7144,2.7285,2.7465,2.7574,2.7733,2.7854,2.8008,2.811,2.8247,2.8375,2.8455,2.8573,2.8712,2.8846,2.8933,2.91,2.9139,2.9195,2.9217,2.919,2.9183,2.9249,2.9244,2.9261,2.9259,2.9258,2.9258,0,2.7197,2.7324,2.7521,2.7716,2.7768,2.7878,2.8044,2.8151,2.8249,2.841,2.8454,2.8609,2.8771,2.8893,2.9103,2.9161,2.9339,2.9361,2.9286,2.9298,2.9365,2.9358,2.956,2.9593,2.9474,2.9475,2.9476,0,2.7274,2.7385,2.7592,2.7685,2.7781,2.7928,2.8031,2.8152,2.8256,2.8443,2.8527,2.8694,2.8836,2.909,2.922,2.938,2.9408,2.9467,2.9433,2.9401,2.9411,2.9404,2.9416,2.9473,2.9474,2.9474,2.9475,0,2.7397,2.7454,2.7601,2.7769,2.789,2.8027,2.8166,2.8236,2.8381,2.8493,2.8661,2.877,2.8984,2.9149,2.9322,2.9418,2.9471,2.9484,2.951,2.9485,2.9438,2.9466,2.9302,2.948,2.9479,2.9479,2.9478,2.9478,2.7467,2.757,2.7732,2.7892,2.8009,2.8136,2.8246,2.8358,2.8501,2.8686,2.8747,2.892,2.9072,2.931,2.9407,2.9543,2.9543,2.958,2.959,2.9598,2.9597,2.9413,2.9574,2.9574,2.9574,2.9574,2.9574,0,2.7597,2.7704,2.785,2.8042,2.8167,2.8205,2.836,2.8462,2.8613,2.8752,2.8889,2.908,2.924,2.9381,2.9546,2.9627,2.9655,2.9667,2.9663,2.9685,2.9586,2.9548,2.9641,2.9641,2.9641,2.9641,2.9641,2.9641,2.7679,2.7855,2.7929,2.8162,2.8268,2.844,2.8525,2.8642,2.8753,2.8964,2.9098,2.9188,2.9328,2.9503,2.965,2.9687,2.9745,2.9751,2.9794,2.97,2.9692,2.9684,2.965,2.9762,2.9762,2.9883,2.9884,2.9885]}]]